Location: ????????
(55.4000°N, 39.1167°E)
Time: 11:56:50
(UTC+00:00)

ERS-1 Rocket - Pass Details

Date: 19 May 2025
Orbit: 747 x 752 km, 98.2° (Epoch: 13 June)

Event Time Altitude Azimuth Distance (km) Brightness Sun altitude
Rises 18:25:17 0° 181° (S) 3,194 5.8 -6.0°
Reaches altitude 10° 18:27:39 10° 187° (S) 2,274 5.1 -6.3°
Maximum altitude 18:32:29 47° 261° (W) 991 3.9 -6.7°
Drops below altitude 10° 18:37:21 10° 336° (NNW) 2,290 7.0 -7.1°
Sets 18:39:45 0° 342° (NNW) 3,219 7.8 -7.3°
